When you browse on this site, cookies collect data to enhance your experience and personalize the content and advertising you see.
Visit our Privacy Policy to learn more. By continuing to use the site, you agree to this use of cookies and data.
  • In Portugal
  • List of Countries
  • For 7 days
  • Water Temperature
  • Satellite Maps
  • Weather Map
  • Weather Widgets
  • user-avatar
    Login

    Hourly Weather Czarnocin

    Today, 17 January, Thursday

    Time Temperature Precipitation Wind Pressure Humidity
    00:00 -1°C° 0 mm 3 mps 735 mmHg 88%
    01:00 -1°C° 0 mm 3 mps 735 mmHg 88%
    02:00 -1°C° 0 mm 3 mps 734 mmHg 86%
    03:00 -1°C° 0 mm 3 mps 734 mmHg 85%
    04:00 -1°C° 0 mm 3 mps 733 mmHg 84%
    05:00 -2°C° 0 mm 4 mps 733 mmHg 82%
    06:00 -1°C° 0 mm 4 mps 733 mmHg 79%
    07:00 -1°C° 0 mm 4 mps 733 mmHg 77%
    08:00 -1°C° 0 mm 4 mps 733 mmHg 75%
    09:00 0°C° 0 mm 5 mps 733 mmHg 73%
    10:00 +1°C° 0 mm 5 mps 733 mmHg 72%
    11:00 +1°C° 0 mm 5 mps 733 mmHg 73%
    12:00 +2°C° 0 mm 5 mps 733 mmHg 75%
    13:00 +2°C° 0 mm 5 mps 733 mmHg 77%
    14:00 +2°C° 0 mm 5 mps 733 mmHg 79%
    15:00 +1°C° 0 mm 5 mps 733 mmHg 81%
    16:00 +1°C° 0 mm 5 mps 733 mmHg 83%
    17:00 0°C° 0 mm 4 mps 733 mmHg 84%
    18:00 0°C° 0 mm 4 mps 733 mmHg 85%
    19:00 0°C° 0 mm 3 mps 733 mmHg 86%
    20:00 -1°C° 0.1 mm 4 mps 733 mmHg 85%
    21:00 0°C° 0.1 mm 4 mps 733 mmHg 84%
    22:00 0°C° 0.1 mm 4 mps 733 mmHg 83%
    23:00 0°C° 0 mm 4 mps 733 mmHg 83%

    Tomorrow, 18 January, Friday

    Time Temperature Precipitation Wind Pressure Humidity
    00:00 0°C° 0 mm 4 mps 733 mmHg 83%
    01:00 +1°C° 0 mm 5 mps 733 mmHg 83%
    02:00 +1°C° 0 mm 5 mps 733 mmHg 84%
    03:00 +1°C° 0 mm 5 mps 733 mmHg 84%
    04:00 0°C° 0 mm 5 mps 733 mmHg 84%
    05:00 0°C° 0.1 mm 5 mps 733 mmHg 85%
    06:00 0°C° 0.1 mm 5 mps 734 mmHg 86%
    07:00 0°C° 0.1 mm 5 mps 734 mmHg 87%
    08:00 -1°C° 0 mm 5 mps 735 mmHg 83%
    09:00 -2°C° 0 mm 6 mps 735 mmHg 80%
    10:00 -2°C° 0 mm 6 mps 736 mmHg 77%
    11:00 -2°C° 0 mm 7 mps 736 mmHg 74%
    12:00 -2°C° 0 mm 7 mps 736 mmHg 71%
    13:00 -2°C° 0 mm 8 mps 737 mmHg 68%
    14:00 -2°C° 0 mm 7 mps 738 mmHg 70%
    15:00 -3°C° 0 mm 7 mps 738 mmHg 73%
    16:00 -3°C° 0 mm 6 mps 739 mmHg 76%
    17:00 -4°C° 0 mm 5 mps 740 mmHg 78%
    18:00 -3°C° 0 mm 4 mps 741 mmHg 80%
    19:00 -3°C° 0 mm 4 mps 742 mmHg 82%
    20:00 -2°C° 0 mm 3 mps 742 mmHg 82%
    21:00 -4°C° 0 mm 3 mps 743 mmHg 82%
    22:00 -4°C° 0 mm 3 mps 744 mmHg 82%
    23:00 -4°C° 0 mm 3 mps 744 mmHg 83%

    Day after tomorrow, 19 January, Saturday

    Time Temperature Precipitation Wind Pressure Humidity
    00:00 -4°C° 0 mm 3 mps 744 mmHg 84%
    01:00 -4°C° 0 mm 3 mps 744 mmHg 85%
    02:00 -5°C° 0 mm 3 mps 744 mmHg 85%
    03:00 -5°C° 0 mm 3 mps 744 mmHg 85%
    04:00 -5°C° 0 mm 3 mps 744 mmHg 85%
    05:00 -4°C° 0 mm 2 mps 745 mmHg 85%
    06:00 -4°C° 0 mm 2 mps 745 mmHg 85%
    07:00 -4°C° 0 mm 2 mps 745 mmHg 84%
    08:00 -4°C° 0 mm 2 mps 745 mmHg 80%
    09:00 -3°C° 0 mm 2 mps 745 mmHg 77%
    10:00 -3°C° 0 mm 2 mps 746 mmHg 73%
    11:00 -2°C° 0 mm 2 mps 745 mmHg 68%
    12:00 0°C° 0 mm 1 mps 745 mmHg 64%
    13:00 0°C° 0 mm 1 mps 745 mmHg 60%
    14:00 0°C° 0 mm 1 mps 745 mmHg 62%
    15:00 0°C° 0 mm 1 mps 744 mmHg 65%
    16:00 -1°C° 0 mm 1 mps 744 mmHg 68%
    17:00 -1°C° 0 mm 1 mps 744 mmHg 70%
    18:00 -1°C° 0 mm 1 mps 744 mmHg 72%
    19:00 -1°C° 0 mm 1 mps 744 mmHg 74%
    20:00 -4°C° 0 mm 2 mps 744 mmHg 75%
    21:00 -4°C° 0 mm 2 mps 744 mmHg 76%
    22:00 -4°C° 0 mm 2 mps 744 mmHg 77%
    23:00 -4°C° 0 mm 2 mps 744 mmHg 78%

    20 January, Sunday

    Time Temperature Precipitation Wind Pressure Humidity
    00:00 -4°C° 0 mm 2 mps 744 mmHg 79%
    01:00 -4°C° 0 mm 2 mps 743 mmHg 80%
    02:00 -5°C° 0 mm 2 mps 743 mmHg 80%
    03:00 -5°C° 0 mm 2 mps 743 mmHg 81%
    04:00 -5°C° 0 mm 2 mps 742 mmHg 82%
    05:00 -5°C° 0 mm 2 mps 742 mmHg 82%
    06:00 -5°C° 0 mm 2 mps 742 mmHg 83%
    07:00 -5°C° 0 mm 2 mps 742 mmHg 84%
    08:00 -5°C° 0 mm 2 mps 742 mmHg 82%
    09:00 -4°C° 0 mm 2 mps 742 mmHg 81%
    10:00 -4°C° 0 mm 2 mps 742 mmHg 79%
    11:00 -2°C° 0 mm 1 mps 742 mmHg 77%
    12:00 -1°C° 0 mm 1 mps 742 mmHg 75%
    13:00 -1°C° 0 mm 1 mps 741 mmHg 72%
    14:00 -1°C° 0 mm 1 mps 741 mmHg 74%
    15:00 -1°C° 0 mm 1 mps 741 mmHg 76%
    16:00 -1°C° 0 mm 1 mps 741 mmHg 77%
    17:00 -2°C° 0 mm 1 mps 742 mmHg 79%
    18:00 -2°C° 0 mm 1 mps 742 mmHg 81%
    19:00 -2°C° 0 mm 1 mps 742 mmHg 83%
    20:00 -3°C° 0 mm 1 mps 743 mmHg 83%
    21:00 -3°C° 0 mm 1 mps 743 mmHg 84%
    22:00 -3°C° 0 mm 1 mps 743 mmHg 84%
    23:00 -3°C° 0 mm 1 mps 743 mmHg 83%

    21 January, Monday

    Time Temperature Precipitation Wind Pressure Humidity
    00:00 -3°C° 0 mm 1 mps 744 mmHg 81%
    01:00 -3°C° 0 mm 1 mps 744 mmHg 80%
    02:00 -3°C° 0 mm 1 mps 744 mmHg 79%
    03:00 -4°C° 0 mm 1 mps 744 mmHg 79%
    04:00 -4°C° 0 mm 1 mps 744 mmHg 78%
    05:00 -4°C° 0 mm 1 mps 744 mmHg 80%
    06:00 -4°C° 0 mm 1 mps 745 mmHg 81%
    07:00 -4°C° 0 mm 1 mps 745 mmHg 83%
    08:00 -4°C° 0 mm 1 mps 745 mmHg 80%
    09:00 -3°C° 0 mm 1 mps 745 mmHg 78%
    10:00 -2°C° 0 mm 1 mps 746 mmHg 75%
    11:00 -2°C° 0 mm 1 mps 745 mmHg 72%
    12:00 -1°C° 0 mm 1 mps 745 mmHg 68%
    13:00 -1°C° 0 mm 1 mps 745 mmHg 65%
    14:00 -1°C° 0 mm 1 mps 745 mmHg 67%
    15:00 -2°C° 0 mm 0 mps 745 mmHg 70%
    16:00 -3°C° 0 mm 0 mps 745 mmHg 72%
    17:00 -3°C° 0 mm 0 mps 745 mmHg 74%
    18:00 -2°C° 0 mm 1 mps 745 mmHg 75%
    19:00 -2°C° 0 mm 1 mps 745 mmHg 76%
    20:00 -4°C° 0 mm 2 mps 745 mmHg 78%
    21:00 -5°C° 0 mm 2 mps 745 mmHg 79%
    22:00 -5°C° 0 mm 2 mps 745 mmHg 81%
    23:00 -5°C° 0 mm 2 mps 745 mmHg 82%

    22 January, Tuesday

    Time Temperature Precipitation Wind Pressure Humidity
    00:00 -5°C° 0 mm 2 mps 745 mmHg 83%
    01:00 -6°C° 0 mm 2 mps 744 mmHg 84%
    02:00 -6°C° 0 mm 2 mps 744 mmHg 84%
    03:00 -6°C° 0 mm 2 mps 744 mmHg 84%
    04:00 -7°C° 0 mm 2 mps 743 mmHg 84%
    05:00 -6°C° 0 mm 1 mps 743 mmHg 83%
    06:00 -6°C° 0 mm 1 mps 742 mmHg 81%
    07:00 -6°C° 0 mm 1 mps 742 mmHg 79%
    08:00 -6°C° 0 mm 1 mps 742 mmHg 74%
    09:00 -4°C° 0 mm 1 mps 742 mmHg 69%
    10:00 -4°C° 0 mm 1 mps 741 mmHg 64%
    11:00 -5°C° 0 mm 2 mps 741 mmHg 62%
    12:00 -4°C° 0 mm 2 mps 740 mmHg 59%
    13:00 -4°C° 0 mm 2 mps 739 mmHg 57%
    14:00 -4°C° 0 mm 2 mps 739 mmHg 63%
    15:00 -5°C° 0 mm 3 mps 738 mmHg 69%
    16:00 -5°C° 0 mm 3 mps 737 mmHg 76%
    17:00 -5°C° 0 mm 3 mps 737 mmHg 79%
    18:00 -7°C° 0 mm 4 mps 737 mmHg 82%
    19:00 -7°C° 0 mm 4 mps 736 mmHg 85%
    20:00 -7°C° 0 mm 4 mps 736 mmHg 85%
    21:00 -8°C° 0 mm 4 mps 736 mmHg 86%
    22:00 -8°C° 0 mm 5 mps 735 mmHg 86%
    23:00 -8°C° 0 mm 5 mps 735 mmHg 85%
    Show more